Погода в Пунто Фихо

Венесуэла     11°41′21″N   70°12′33″W
темп.,
°C
ветер,
м/с
пор.,
м/с
влажн.,
%
обл.,
%
осадки,
мм/ч
давл.,
гПа
погр.,
м
25 февраля, чт
чт2523:00+26в11157981 0.0 1013845
02:00+25в10158091 0.0 1013806
05:00+25в101581100 0.0 1011827
08:00+26в11158074 0.0 1013878
11:00+28в11146780 0.0 1015679
14:00+29в12156389 0.1 1012673
17:00+28в131768100 0.0 1010762
20:00+26в121778100 0.0 1011910
26 февраля, пт
пт2623:00+26в121778100 0.0 1013915
02:00+25в111680100 0.0 1012913
05:00+25в111578100 0.0 1011896
08:00+25в12157384 0.0 1012973
11:00+28в11146364 0.0 1014797
14:00+29в12155963 0.0 1011727
17:00+27всв1215630 0.0 1009729
20:00+25всв913770 0.0 1011852
27 февраля, сб
сб2723:00+25всв10147654 0.0 1013840
02:00+25всв9147577 0.0 1012888
05:00+25в9137671 0.0 1012854
08:00+25в10137672 0.0 1013960
11:00+28в11136281 0.0 1014700
14:00+28в12145970 0.0 1011647
17:00+28в12156135 0.0 1009712
20:00+25в10147617 0.0 1011915
28 февраля, вс
вс2823:00+25в10147847 0.0 1013889
02:00+25в10157842 0.3 1012949
05:00+25в10147852 0.0 1011912
08:00+25в10147566 0.1 10131066
11:00+28в12156319 0.1 1014829
14:00+29в12155911 0.1 1011732
17:00+28в13166235 0.0 1009823
20:00+25всв12167417 0.0 1011925
1 марта, пн
пн123:00+25всв1015762 0.0 1012950
02:00+25в914756 0.0 1012914
05:00+24в8127836 0.0 1011776
08:00+25в10137644 0.0 1013865
11:00+27в10136694 0.0 1014762
14:00+28в11145997 0.0 1011725
17:00+27всв111467100 0.0 1009760
20:00+25в9137367 0.0 1010746